Regional Weather Roundup
Issued by NWS State College, PA

Home | Current Version | Previous Version | Text Only | Print | Product List | Glossary Off
Versions: 1 2 3 4 5 6 7 8 9 10 11 12 13 14 15 16 17 18 19 20 21 22 23 24 25 26 27 28 29 30 31 32 33 34 35 36 37 38 39 40 41 42 43 44 45 46 47 48 49 50

000
ASUS41 KCTP 281903
RWRCTP

REGIONAL WEATHER ROUNDUP
NATIONAL WEATHER SERVICE STATE COLLEGE PA
300 PM EDT FRI AUG 28 2015

Note: "fair" indicates few or no clouds below 12,000 feet with no
significant weather and/or obstructions to visibility.

* = STATION THAT DOES NOT REPORT PRECIPITATION /E.G. RAIN...SNOW...ETC/
    THUNDER OR FOG.

PAZ002>004-007>009-013>016-020>023-029>032-282000-
WESTERN PENNSYLVANIA

CITY           SKY/WX    TMP DP  RH WIND       PRES   REMARKS
ERIE           SUNNY     72  54  53 NW7       30.20F
MEADVILLE      MOSUNNY   74  55  51 VRB5      30.22S
FRANKLIN*      CLOUDY    72  54  53 CALM      30.23S
NEW CASTLE     FAIR      79  55  43 SW3       30.21S
BEAVER COUNTY  CLOUDY    75  54  46 N3        30.28R
BUTLER*        CLOUDY    75  54  46 E6        30.22S
PITTSBURGH INT MOSUNNY   76  49  38 NE3       30.19F
PITTSBURGH     SUNNY     75  46  35 CALM      30.19F
INDIANA*       CLOUDY    73  54  49 NE5       30.23S
LATROBE        MOSUNNY   77  50  38 SW7       30.20S
WASHINGTON CO* MOSUNNY   77  52  41 CALM      30.20F
$$

PAZ004>006-010>012-017>019-024>028-033>037-041-042-045-046-049>053-282000-
CENTRAL PENNSYLVANIA

CITY           SKY/WX    TMP DP  RH WIND       PRES   REMARKS
BRADFORD       PTSUNNY   70  49  47 CALM      30.22F
DUBOIS         PTSUNNY   75  51  43 VRB6      30.21F
CLEARFIELD     PTSUNNY   75  51  43 NW5       30.21F
JOHNSTOWN      MOSUNNY   73  48  41 CALM      30.22F
ALTOONA        SUNNY     77  50  38 S6        30.21F
STATE COLLEGE  MOSUNNY   72  55  56 E3        30.20F
WILLIAMSPORT   MOSUNNY   78  54  43 VRB3      30.17F
SELINSGROVE    MOSUNNY   78  58  49 VRB3      30.18F
FT INDIANTOWN  MOSUNNY   78  55  45 VRB5      30.17F
CAPITAL CITY   MOSUNNY   78  53  41 N3        30.17F
HARRISBURG     MOSUNNY   81  55  40 VRB3      30.16F
YORK           SUNNY     79  57  46 VRB3      30.18F
$$

PAZ038>040-043-044-047-048-054-055-060>062-067>071-282000-
EASTERN PENNSYLVANIA

CITY           SKY/WX    TMP DP  RH WIND       PRES   REMARKS
SCRANTON       MOSUNNY   74  51  44 NW7       30.19F
MOUNT POCONO   MOSUNNY   70  51  51 VRB6      30.21F
ALLENTOWN      PTSUNNY   77  55  46 N3        30.17F
QUAKERTOWN*    MOCLDY    77  55  47 NW6       30.19F
READING        MOSUNNY   78  55  44 VRB3      30.16F
LANCASTER      MOSUNNY   80  54  40 NW6       30.17F
COATESVILLE    PTCLDY    77  55  47 W3        30.19F
POTTSTOWN      MOSUNNY   76  57  51 NW5       30.18F
BLUE BELL      MOSUNNY   79  59  50 CALM      30.17S
DOYLESTOWN     MOSUNNY   76  54  46 VRB5      30.17F
WILLOW GROVE   NOT AVBL
NORTH PHILA    MOSUNNY   81  51  35 VRB3      30.18S
PHILADELPHIA   MOSUNNY   80  51  36 NW8       30.16F
$$


USA.gov is the U.S. government's official web portal to all federal, state and local government web resources and services.